BOX482 EDDM-EDDL

Flight info

Callsign BOX482
Flight time N/A
Altitude 30000
Route GIVMI6S GIVMI Y101 INBED DCT REKDI DCT LOHRE Z850 ADEMI T854 DOMUX DOMUX1A
Aircraft B77L/H-SDE1E2E3FGHIJ2J3J4J5M1RWXY/LB1D1

Departure

Time 2026-05-04 18:24
Airport Munich Airport (EDDM)

Arrival

Time N/A
Airport Düsseldorf Airport (EDDL)
Time Latitude Longitude Altitude Speed Heading
2026-05-04 17:42 48.34878 11.77061 1470 ft 0 kts 354°
2026-05-04 18:04 48.34869 11.77063 1470 ft 3 kts 354°
2026-05-04 18:04 48.34851 11.77065 1460 ft 3 kts 354°
2026-05-04 18:04 48.34814 11.77069 1461 ft 3 kts
2026-05-04 18:05 48.34796 11.77062 1459 ft 3 kts 27°
2026-05-04 18:05 48.34781 11.77047 1459 ft 3 kts 46°
2026-05-04 18:05 48.34770 11.77026 1459 ft 3 kts 64°
2026-05-04 18:05 48.34765 11.77010 1459 ft 0 kts 77°
2026-05-04 18:10 48.34765 11.77012 1470 ft 2 kts 77°
2026-05-04 18:10 48.34777 11.77113 1467 ft 18 kts 82°
2026-05-04 18:10 48.34795 11.77300 1462 ft 13 kts 83°
2026-05-04 18:10 48.34743 11.77394 1463 ft 13 kts 166°
2026-05-04 18:11 48.34701 11.77404 1462 ft 0 kts 172°
2026-05-04 18:12 48.34693 11.77405 1464 ft 3 kts 172°
2026-05-04 18:12 48.34656 11.77421 1466 ft 8 kts 148°
2026-05-04 18:13 48.34633 11.77514 1467 ft 12 kts 90°
2026-05-04 18:13 48.34642 11.77662 1467 ft 16 kts 84°
2026-05-04 18:13 48.34675 11.78083 1470 ft 24 kts 84°
2026-05-04 18:14 48.34693 11.78342 1466 ft 26 kts 83°
2026-05-04 18:14 48.34715 11.78612 1469 ft 26 kts 83°
2026-05-04 18:14 48.34737 11.78881 1463 ft 26 kts 83°
2026-05-04 18:15 48.34777 11.79415 1466 ft 26 kts 83°
2026-05-04 18:15 48.34821 11.79951 1471 ft 18 kts 85°
2026-05-04 18:15 48.34823 11.79979 1469 ft 4 kts 84°
2026-05-04 18:16 48.34829 11.80068 1466 ft 14 kts 84°
2026-05-04 18:16 48.34839 11.80246 1463 ft 19 kts 92°
2026-05-04 18:16 48.34761 11.80387 1463 ft 19 kts 156°
2026-05-04 18:17 48.34687 11.80407 1461 ft 0 kts 174°
2026-05-04 18:22 48.34685 11.80408 1462 ft 2 kts 174°
2026-05-04 18:22 48.34651 11.80413 1467 ft 7 kts 174°
2026-05-04 18:22 48.34594 11.80423 1459 ft 9 kts 173°
2026-05-04 18:22 48.34524 11.80433 1461 ft 11 kts 177°
2026-05-04 18:23 48.34476 11.80364 1465 ft 11 kts 254°
2026-05-04 18:23 48.34451 11.80106 1472 ft 45 kts 264°
2026-05-04 18:23 48.34392 11.79347 1463 ft 100 kts 263°
2026-05-04 18:23 48.34297 11.78061 1469 ft 146 kts 263°
2026-05-04 18:24 48.34171 11.76364 1477 ft 182 kts 263°
2026-05-04 18:24 48.34009 11.74388 1643 ft 191 kts 263°
2026-05-04 18:24 48.33835 11.72420 1987 ft 191 kts 264°
2026-05-04 18:24 48.33664 11.70374 2167 ft 202 kts 264°
2026-05-04 18:25 48.33490 11.68261 2511 ft 204 kts 265°
2026-05-04 18:25 48.33353 11.66126 2797 ft 209 kts 265°
2026-05-04 18:25 48.33239 11.63934 3124 ft 210 kts 275°
2026-05-04 18:25 48.33716 11.61882 3332 ft 210 kts 307°
2026-05-04 18:26 48.34596 11.60109 3627 ft 213 kts 308°
2026-05-04 18:26 48.35495 11.58303 3966 ft 216 kts 307°
2026-05-04 18:26 48.36392 11.56507 4299 ft 219 kts 307°
2026-05-04 18:26 48.37335 11.54620 4514 ft 231 kts 307°
2026-05-04 18:27 48.38334 11.52621 4729 ft 244 kts 307°
2026-05-04 18:27 48.39364 11.50554 5137 ft 247 kts 307°
2026-05-04 18:27 48.40387 11.48499 5604 ft 249 kts 306°
2026-05-04 18:27 48.41430 11.46406 6063 ft 251 kts 306°
2026-05-04 18:28 48.42594 11.44444 6415 ft 256 kts 326°
2026-05-04 18:28 48.44278 11.43503 6636 ft 264 kts 349°
2026-05-04 18:28 48.46130 11.43007 6866 ft 275 kts 349°
2026-05-04 18:28 48.48042 11.42502 7226 ft 282 kts 349°
2026-05-04 18:29 48.49990 11.41986 7620 ft 287 kts 348°
2026-05-04 18:29 48.51982 11.41456 8046 ft 292 kts 348°
2026-05-04 18:29 48.53977 11.40920 8503 ft 295 kts 348°
2026-05-04 18:29 48.56013 11.40368 8992 ft 298 kts 347°
2026-05-04 18:30 48.60112 11.39249 9899 ft 303 kts 347°
2026-05-04 18:30 48.62197 11.38677 10319 ft 305 kts 347°
2026-05-04 18:30 48.64284 11.38103 10733 ft 307 kts 347°
2026-05-04 18:31 48.66395 11.37522 11138 ft 309 kts 347°
2026-05-04 18:31 48.68520 11.36936 11543 ft 311 kts 347°
2026-05-04 18:31 48.70600 11.36086 11861 ft 308 kts 329°
2026-05-04 18:31 48.72410 11.34368 12182 ft 308 kts 322°
2026-05-04 18:32 48.74201 11.32463 12423 ft 323 kts 322°
2026-05-04 18:32 48.76109 11.30456 12577 ft 342 kts 323°
2026-05-04 18:32 48.78113 11.28388 12744 ft 360 kts 323°
2026-05-04 18:32 48.80236 11.26226 13172 ft 372 kts 323°
2026-05-04 18:33 48.82404 11.24029 13718 ft 379 kts 324°
2026-05-04 18:33 48.84715 11.22028 14326 ft 383 kts 332°
2026-05-04 18:33 48.87173 11.20444 15040 ft 384 kts 339°
2026-05-04 18:33 48.89687 11.19160 15686 ft 386 kts 340°
2026-05-04 18:34 48.92284 11.17874 16005 ft 399 kts 340°
2026-05-04 18:34 48.94969 11.16542 16306 ft 410 kts 340°
2026-05-04 18:34 48.97714 11.15169 16785 ft 416 kts 340°
2026-05-04 18:34 49.00436 11.13794 17393 ft 419 kts 339°
2026-05-04 18:35 49.03211 11.12383 18049 ft 420 kts 339°
2026-05-04 18:35 49.06002 11.10958 18631 ft 422 kts 339°
2026-05-04 18:35 49.08811 11.09521 19122 ft 426 kts 339°
2026-05-04 18:35 49.11614 11.08087 19579 ft 430 kts 339°
2026-05-04 18:36 49.14477 11.06651 20047 ft 434 kts 340°
2026-05-04 18:36 49.17360 11.05216 20551 ft 437 kts 339°
2026-05-04 18:36 49.20270 11.03758 21021 ft 440 kts 339°
2026-05-04 18:36 49.23153 11.02283 21492 ft 444 kts 339°
2026-05-04 18:37 49.26097 11.00761 21940 ft 447 kts 339°
2026-05-04 18:37 49.29074 10.99222 22416 ft 451 kts 339°
2026-05-04 18:37 49.32030 10.97696 22849 ft 454 kts 339°
2026-05-04 18:37 49.35021 10.96112 23291 ft 455 kts 335°
2026-05-04 18:38 49.37848 10.93909 23621 ft 455 kts 324°
2026-05-04 18:38 49.40366 10.90977 24024 ft 454 kts 315°
2026-05-04 18:38 49.42537 10.87466 24470 ft 451 kts 306°
2026-05-04 18:38 49.44474 10.83733 24874 ft 452 kts 305°
2026-05-04 18:39 49.46429 10.79906 25244 ft 455 kts 305°
2026-05-04 18:39 49.48400 10.76057 25650 ft 457 kts 305°
2026-05-04 18:39 49.50363 10.72253 26026 ft 460 kts 306°
2026-05-04 18:39 49.52381 10.68375 26386 ft 462 kts 306°
2026-05-04 18:40 49.54390 10.64530 26779 ft 464 kts 306°
2026-05-04 18:40 49.56408 10.60669 27148 ft 466 kts 306°
2026-05-04 18:40 49.58459 10.56742 27512 ft 469 kts 306°
2026-05-04 18:40 49.60509 10.52810 27873 ft 471 kts 306°
2026-05-04 18:41 49.62565 10.48858 28212 ft 473 kts 306°
2026-05-04 18:41 49.64609 10.44923 28558 ft 475 kts 305°
2026-05-04 18:41 49.66610 10.40832 28888 ft 475 kts 302°
2026-05-04 18:41 49.68500 10.36619 29229 ft 476 kts 301°
2026-05-04 18:42 49.70369 10.32353 29528 ft 478 kts 300°
2026-05-04 18:42 49.72205 10.28132 29799 ft 480 kts 300°
2026-05-04 18:42 49.74078 10.23827 29900 ft 481 kts 300°
2026-05-04 18:43 49.77772 10.15381 29960 ft 472 kts 300°
2026-05-04 18:43 49.81432 10.07023 29959 ft 468 kts 300°
2026-05-04 18:44 49.85080 9.98670 29953 ft 467 kts 300°
2026-05-04 18:44 49.88707 9.90336 29959 ft 467 kts 300°
2026-05-04 18:45 49.92355 9.81927 29976 ft 468 kts 300°
2026-05-04 18:45 49.95979 9.73547 29961 ft 470 kts 300°
2026-05-04 18:46 49.99633 9.65072 29961 ft 471 kts 300°
2026-05-04 18:46 50.03270 9.56612 29981 ft 472 kts 300°
2026-05-04 18:47 50.07261 9.48484 29967 ft 477 kts 309°
2026-05-04 18:47 50.12202 9.41440 29973 ft 482 kts 317°
2026-05-04 18:48 50.17425 9.34973 29979 ft 483 kts 317°
2026-05-04 18:48 50.22685 9.28395 29975 ft 483 kts 316°
2026-05-04 18:49 50.27911 9.21755 29972 ft 483 kts 316°
2026-05-04 18:49 50.33100 9.15135 29972 ft 483 kts 316°
2026-05-04 18:50 50.38319 9.08473 29966 ft 483 kts 316°
2026-05-04 18:50 50.43505 9.01844 29964 ft 479 kts 316°
2026-05-04 18:51 50.48612 8.95296 29969 ft 469 kts 316°
2026-05-04 18:51 50.53611 8.88871 29952 ft 464 kts 317°
2026-05-04 18:51 50.56140 8.85755 29741 ft 458 kts 318°
2026-05-04 18:52 50.58671 8.82737 29251 ft 454 kts 319°
2026-05-04 18:52 50.61195 8.79754 29008 ft 453 kts 319°
2026-05-04 18:52 50.63709 8.76771 28983 ft 460 kts 319°
2026-05-04 18:53 50.68834 8.70636 28955 ft 456 kts 318°
2026-05-04 18:53 50.71336 8.67628 28735 ft 445 kts 318°
2026-05-04 18:53 50.73750 8.64715 28459 ft 437 kts 318°
2026-05-04 18:53 50.75347 8.62782 28250 ft 432 kts 318°
2026-05-04 18:54 50.77717 8.59908 27934 ft 425 kts 318°
2026-05-04 18:54 50.80054 8.57068 27638 ft 421 kts 318°
2026-05-04 18:54 50.82352 8.54270 27356 ft 418 kts 317°
2026-05-04 18:54 50.84656 8.51463 27066 ft 415 kts 318°
2026-05-04 18:55 50.86948 8.48669 26788 ft 412 kts 318°
2026-05-04 18:55 50.91466 8.43151 26233 ft 408 kts 318°
2026-05-04 18:55 50.93687 8.40433 25969 ft 406 kts 318°
2026-05-04 18:56 50.95928 8.37689 25697 ft 403 kts 318°
2026-05-04 18:56 50.98139 8.34980 25404 ft 398 kts 318°
2026-05-04 18:56 51.00292 8.32339 25130 ft 393 kts 318°
2026-05-04 18:56 51.02515 8.29835 25044 ft 387 kts 324°
2026-05-04 18:57 51.04865 8.27713 24990 ft 388 kts 327°
2026-05-04 18:57 51.07250 8.25647 25000 ft 393 kts 327°
2026-05-04 18:57 51.09635 8.23560 24980 ft 397 kts 327°
2026-05-04 18:57 51.12068 8.21422 24715 ft 400 kts 329°
2026-05-04 18:58 51.14655 8.19728 24439 ft 401 kts 339°
2026-05-04 18:58 51.17320 8.18431 24154 ft 396 kts 340°
2026-05-04 18:58 51.19977 8.17466 23858 ft 388 kts 349°
2026-05-04 18:58 51.22684 8.17157 23498 ft 392 kts 360°
2026-05-04 18:59 51.25377 8.17681 23162 ft 396 kts 12°
2026-05-04 18:59 51.28009 8.19058 22851 ft 399 kts 23°
2026-05-04 18:59 51.30446 8.21229 22545 ft 402 kts 34°
2026-05-04 18:59 51.32638 8.24018 22237 ft 402 kts 41°
2026-05-04 19:00 51.34692 8.26992 21938 ft 402 kts 43°
2026-05-04 19:00 51.36729 8.30047 21626 ft 397 kts 43°
2026-05-04 19:00 51.38736 8.33077 21368 ft 391 kts 43°
2026-05-04 19:00 51.40675 8.36010 21154 ft 383 kts 43°
2026-05-04 19:01 51.42594 8.38915 20900 ft 375 kts 43°
2026-05-04 19:01 51.44493 8.41789 20546 ft 371 kts 43°
2026-05-04 19:01 51.46519 8.44233 20058 ft 369 kts 26°
2026-05-04 19:01 51.48932 8.45612 19567 ft 367 kts
2026-05-04 19:02 51.51460 8.45719 19158 ft 361 kts 348°
2026-05-04 19:02 51.53845 8.44701 18797 ft 354 kts 337°
2026-05-04 19:02 51.56107 8.43261 18703 ft 340 kts 334°
2026-05-04 19:02 51.58217 8.41803 18628 ft 326 kts 334°
2026-05-04 19:03 51.60273 8.40360 18461 ft 314 kts 334°
2026-05-04 19:03 51.62247 8.38968 18202 ft 305 kts 334°
2026-05-04 19:03 51.64140 8.37626 17939 ft 295 kts 334°
2026-05-04 19:03 51.66012 8.36296 17671 ft 286 kts 333°
2026-05-04 19:04 51.67823 8.35007 17726 ft 288 kts 333°
2026-05-04 19:04 51.69701 8.33659 17768 ft 301 kts 333°
2026-05-04 19:04 51.71604 8.32285 17773 ft 304 kts 333°
2026-05-04 19:04 51.73548 8.30879 17557 ft 307 kts 333°
2026-05-04 19:05 51.75492 8.29470 17271 ft 303 kts 333°
2026-05-04 19:05 51.77349 8.27972 16990 ft 292 kts 321°
2026-05-04 19:05 51.78673 8.25610 16710 ft 278 kts 294°
2026-05-04 19:05 51.79404 8.22773 16533 ft 276 kts 285°
2026-05-04 19:06 51.79992 8.19816 16507 ft 276 kts 284°
2026-05-04 19:06 51.80557 8.16808 16391 ft 280 kts 284°
2026-05-04 19:06 51.81116 8.13798 16169 ft 279 kts 283°
2026-05-04 19:06 51.81666 8.10816 15946 ft 279 kts 283°
2026-05-04 19:07 51.82216 8.07807 15693 ft 278 kts 283°
2026-05-04 19:07 51.82761 8.04801 15454 ft 278 kts 283°
2026-05-04 19:07 51.83301 8.01800 15205 ft 277 kts 283°
2026-05-04 19:07 51.83823 7.98840 14952 ft 275 kts 280°
2026-05-04 19:08 51.83799 7.95829 14648 ft 266 kts 246°
2026-05-04 19:08 51.82740 7.93483 14419 ft 256 kts 217°
2026-05-04 19:08 51.81273 7.91875 14219 ft 260 kts 211°
2026-05-04 19:08 51.79714 7.90336 14058 ft 262 kts 210°
2026-05-04 19:09 51.78150 7.88821 14022 ft 261 kts 210°
2026-05-04 19:09 51.76597 7.87319 13967 ft 260 kts 210°
2026-05-04 19:09 51.75043 7.85813 13975 ft 260 kts 210°
2026-05-04 19:09 51.73500 7.84313 13992 ft 262 kts 210°
2026-05-04 19:10 51.71926 7.82780 13970 ft 263 kts 210°
2026-05-04 19:10 51.70375 7.81268 13967 ft 264 kts 210°
2026-05-04 19:10 51.68796 7.79725 13960 ft 265 kts 210°
2026-05-04 19:10 51.67217 7.78184 13967 ft 264 kts 210°
2026-05-04 19:11 51.65646 7.76649 13968 ft 263 kts 210°
2026-05-04 19:11 51.64092 7.75132 13963 ft 263 kts 210°
2026-05-04 19:11 51.62528 7.73604 13960 ft 261 kts 210°
2026-05-04 19:11 51.60973 7.72087 13961 ft 260 kts 210°
2026-05-04 19:12 51.59423 7.70576 13964 ft 260 kts 210°
2026-05-04 19:12 51.56322 7.67557 13811 ft 264 kts 210°
2026-05-04 19:12 51.54763 7.66041 13572 ft 263 kts 210°
2026-05-04 19:13 51.53205 7.64526 13315 ft 260 kts 210°
2026-05-04 19:13 51.51664 7.63029 13059 ft 256 kts 210°
2026-05-04 19:13 51.50151 7.61559 12817 ft 253 kts 210°
2026-05-04 19:13 51.48642 7.60095 12584 ft 251 kts 210°
2026-05-04 19:14 51.47151 7.58650 12341 ft 250 kts 210°
2026-05-04 19:14 51.45682 7.57228 12115 ft 249 kts 210°
2026-05-04 19:14 51.44196 7.55791 11889 ft 248 kts 210°
2026-05-04 19:14 51.42708 7.54352 11641 ft 248 kts 211°
2026-05-04 19:15 51.41442 7.52504 11351 ft 248 kts 233°
2026-05-04 19:15 51.40507 7.50226 11148 ft 248 kts 235°
2026-05-04 19:15 51.39556 7.47900 10910 ft 250 kts 235°
2026-05-04 19:15 51.38596 7.45563 10671 ft 252 kts 235°
2026-05-04 19:16 51.37627 7.43215 10442 ft 253 kts 235°
2026-05-04 19:16 51.36665 7.40888 10212 ft 252 kts 235°
2026-05-04 19:16 51.35700 7.38561 9962 ft 248 kts 235°
2026-05-04 19:16 51.34746 7.36266 9694 ft 245 kts 235°
2026-05-04 19:17 51.33819 7.34039 9429 ft 241 kts 234°
2026-05-04 19:17 51.32894 7.31819 9161 ft 238 kts 234°
2026-05-04 19:17 51.31977 7.29623 8887 ft 235 kts 234°
2026-05-04 19:17 51.31100 7.27427 8608 ft 232 kts 243°
2026-05-04 19:18 51.30807 7.24904 8335 ft 240 kts 275°
2026-05-04 19:18 51.31420 7.22390 8100 ft 251 kts 305°
2026-05-04 19:18 51.32797 7.20639 7853 ft 257 kts 336°
2026-05-04 19:18 51.34557 7.20179 7610 ft 259 kts
2026-05-04 19:19 51.36314 7.20647 7397 ft 259 kts 12°
2026-05-04 19:19 51.38077 7.21301 7147 ft 261 kts 13°
2026-05-04 19:19 51.39851 7.21991 6871 ft 261 kts 13°
2026-05-04 19:19 51.41619 7.22560 6590 ft 255 kts 359°
2026-05-04 19:20 51.43289 7.21981 6326 ft 243 kts 330°
2026-05-04 19:20 51.44748 7.20617 6081 ft 241 kts 324°
2026-05-04 19:20 51.46083 7.19038 5809 ft 240 kts 309°
2026-05-04 19:20 51.46832 7.16703 5547 ft 235 kts 275°
2026-05-04 19:21 51.46651 7.14191 5305 ft 230 kts 244°
2026-05-04 19:21 51.45867 7.11965 5098 ft 228 kts 236°
2026-05-04 19:21 51.44949 7.09848 4851 ft 232 kts 233°
2026-05-04 19:21 51.43989 7.07788 4583 ft 227 kts 232°
2026-05-04 19:22 51.43060 7.05825 4304 ft 219 kts 232°
2026-05-04 19:22 51.42150 7.03904 4033 ft 210 kts 232°
2026-05-04 19:22 51.41295 7.02101 3784 ft 200 kts 232°
2026-05-04 19:22 51.40475 7.00367 3621 ft 189 kts 231°
2026-05-04 19:23 51.39702 6.98737 3372 ft 180 kts 231°
2026-05-04 19:23 51.38959 6.97167 3158 ft 175 kts 231°
2026-05-04 19:23 51.38222 6.95612 2950 ft 175 kts 231°
2026-05-04 19:23 51.37494 6.94077 2720 ft 175 kts 231°
2026-05-04 19:24 51.36755 6.92516 2469 ft 173 kts 231°
2026-05-04 19:24 51.36035 6.90999 2238 ft 173 kts 231°
2026-05-04 19:24 51.35310 6.89470 2010 ft 172 kts 231°
2026-05-04 19:24 51.34584 6.87941 1763 ft 172 kts 231°
2026-05-04 19:25 51.33878 6.86453 1526 ft 165 kts 231°
2026-05-04 19:25 51.33209 6.85038 1306 ft 154 kts 232°
2026-05-04 19:25 51.32592 6.83688 1048 ft 149 kts 231°
2026-05-04 19:25 51.31951 6.82380 855 ft 149 kts 229°
2026-05-04 19:26 51.31314 6.81032 663 ft 154 kts 232°
2026-05-04 19:26 51.30717 6.79698 393 ft 152 kts 231°
2026-05-04 19:26 51.30061 6.78414 248 ft 148 kts 228°
2026-05-04 19:26 51.29433 6.77113 135 ft 144 kts 230°